Home > Weather > Manaus > Past weeks

Flag for Brazil Past Weather in Manaus, Amazonas, Brazil — Yesterday and Last 2 Weeks

Now
82 °F

Clear.


Feels Like: 89 °F
Forecast: 75 / 93 °F
Wind: 2 mph from Southeast

Location: Manaus Aeroporto

Current Time: Jul 26, 2016 at 9:16:11 PM

Latest Report: Jul 26, 2016 at 8:00 PM


Visibility: 10 mi

Pressure: 29.86 "Hg

Humidity: 79%

Dew Point: 75 °F

Location of ManausLocation

Past Weather in Manaus — Graph

°F

Manaus Temperature Yesterday

Maximum temperature yesterday: 90 °F (at 3:00 PM)
Minimum temperature yesterday: 77 °F (at 3:00 AM)
Average temperature yesterday: 82 °F

High & Low Weather Summary for the Past Weeks

 TemperatureHumidityPressure
High93 °F (Jul 17, 2:00 PM)100% (Jul 19, 2:00 PM)30.01 "Hg (Jul 19, 2:00 PM)
Low72 °F (Jul 20, 5:00 AM)41% (Jul 15, 4:00 PM)29.80 "Hg (Jul 13, 4:00 PM)
Average82 °F74%29.90 "Hg
* Reported Jul 11 8:00 PM — Jul 26 8:00 PM, Manaus, Weather by CustomWeather, © 2016

Note: Actual official high and low records may vary slightly from our data, if they occured in-between our weather recording intervals... More about our weather records

Advertising

Manaus Weather History for the Previous 24 Hours

Scroll right to see more
 ConditionsComfort  
Time TempWeatherWind HumidityBarometerVisibility
8:00 PM
Tue, Jul 26
82 °FClear.2 mph79%29.86 "Hg10 mi
7:00 PM82 °FPassing clouds.2 mph70%29.86 "HgN/A
6:00 PM84 °FPassing clouds.2 mph66%29.83 "HgN/A
5:00 PM88 °FPassing clouds.2 mph59%29.83 "HgN/A
4:00 PM90 °FScattered clouds.7 mph55%29.83 "HgN/A
3:00 PM90 °FScattered clouds.6 mph52%29.86 "HgN/A
2:00 PM91 °FScattered clouds.6 mph49%29.86 "HgN/A
1:00 PM90 °FScattered clouds.6 mph52%29.89 "HgN/A
12:00 PM90 °FScattered clouds.6 mph59%29.92 "HgN/A
11:00 AM88 °FScattered clouds.3 mph62%29.92 "HgN/A
10:00 AM86 °FPassing clouds.2 mph66%29.92 "HgN/A
9:00 AM84 °FSunny.3 mph70%29.92 "Hg10 mi
8:00 AM84 °FSunny.2 mph66%29.92 "Hg10 mi
7:00 AM79 °FSunny.3 mph79%29.89 "Hg10 mi
6:00 AM77 °FClear.No wind83%29.86 "Hg10 mi
5:00 AM79 °FClear.2 mph79%29.86 "Hg10 mi
4:00 AM79 °FClear.3 mph79%29.86 "Hg10 mi
3:00 AM79 °FClear.2 mph79%29.83 "Hg10 mi
2:00 AM79 °FClear.3 mph84%29.86 "Hg10 mi
1:00 AM81 °FClear.3 mph79%29.89 "Hg10 mi
12:00 AM81 °FClear.2 mph74%29.89 "Hg10 mi
11:00 PM
Mon, Jul 25
81 °FClear.3 mph74%29.89 "Hg10 mi
10:00 PM82 °FClear.2 mph66%29.89 "Hg10 mi
9:00 PM82 °FPassing clouds.2 mph62%29.89 "HgN/A
Weather by CustomWeather, © 2016

See weather overviewHow to use our weather pages